Prague/Václav Havel Airport

Airport
ICAO code: 
LKPR
IATA Code: 
PRG
Summary
ICAO Region: 
EUR
Territory: 
Location: 
Ruzyně, Prague
Serving: 
Prague
Elevation: 
1247 ft
Coordinates: 
Aerial View: 
50° 6' 6" N, 14° 15' 36" E
Metar
Observation
LKPR 181030Z 25006KT 9999 BKN030 01/M02 Q1035 NOSIG
Station
Praha / Ruzyne
Date/Time
2022-01-18 10:30:00
Wind direction
250°
Wind speed
06 kts
Lowest cloud amount
broken clouds
Temperature
1°C
Dew point
-2°C
Humidity
80%
QNH
1035 hPa
Weather condition
n/a

Description

International airport serving capital of the Czech Republic.

Climatology

Humid Continental climate (Köppen climate classification Dfb) - Variable weather patterns and a large seasonal temperature variance. Summers are often warm and humid with frequent thunderstorms and winters can be very cold with frequent snowfall and persistent snow cover.

Runways

Designator Length Width Surface Rops
4/22 2120 60 ASP Yes/Yes
13/31 3250 45 CON Yes/Yes
6/24 3715 45 CON Yes/Yes
Airport map: 
Aerial View: 

SKYbrary Partners:

Safety knowledge contributed by: